星链-4756 (STARLINK-4756 )

导读

STARLINK-4756是美国太空探索技术公司(SpaceX)星链(Starlink)卫星互联网项目的低轨通信卫星,于2022年9月19日发射升空,属于星链星座组网卫星,旨在为全球,尤其是网络覆盖匮乏的偏远地区,提供高速、稳定的宽带互联网接入服务,运行在近地轨道,是星链构建全球卫星互联网的重要组成部分,助力实现全域互联覆盖。

Basic Information
目录编号:
53826
目录名称:
STARLINK-4756
国际标识:
2022-114J
轨道中心:
EARTH
卫星名称:
星链-4756
卫星全名:
星链-4756 (STARLINK-4756 )
卫星状态:
在轨 (已飞行1367 天)
发射日期:
2022-09-19 UTC
国别 :
美国 (US)
星等 :
--
Orbit Information
数据来源 国际轨道数据 AOE轨道数据
星历时间 2026-06-17T04:39:38+0800
12小时前
查看轨道信息
2026-06-11T06:00:00+0800
6天前
查看轨道信息
半长轴 6917.83km 6917.818km
偏心率 0.0000998 0.0000854
轨道倾角 53.159° 53.161°
近地点辐角 86.275° 93.751°
升交点赤经 218.775° 245.496°
平近点角 273.836° 0.881°
近地点 539.002km 539.09km
远地点 540.384km 540.272km
周期 95.437分钟 95.436分钟
每日圈数 15.088565 15.088605
Detailed Information
固有亮度:
5
最大亮度:
2.5
卫星平台:
Starlink v1.5
覆盖范围:
全球
运营商:
太空探索技术公司
运营商所在国:
美国
制造商(研发单位):
太空探索技术公司
制造商所在国:
美国
使用方式:
暂无
Satellite Introduction
星链(Starlink)计划是由太空探索技术公司(SpaceX)提出的一个巨型低轨卫星互联网星座项目,计划在2019年至2024年间在太空搭建由约1.2万颗卫星组成的“星链”网络,其中1584颗将部署在地球上空550千米处的近地轨道,并从2020年开始工作。该卫星仍在工作。
2D Orbit Map
3D Orbit Map
Orbit Altitude Analysis Chart
Orbit Inclination Analysis Chart
Orbit Comprehensive Analysis Chart
View Comprehensive Chart